Location: Mazzola
(42.3008°N, 9.3085°E)
Time: 08:24:52
(UTC+00:00)

Daily predictions for brighter satellites

Satellite Brightness Start Highest point End
(mag) Time Altitude Azimuth Time Altitude Azimuth Time Altitude Azimuth
Cosmos 1634 Rocket 4.2 19:16:30 10° N 19:22:45 57° E 19:28:57 10° SSE
STARLINK-1122 4.3 19:21:53 10° NW 19:25:55 48° NNE 19:29:55 10° ESE
Cosmos 1356 3.9 19:22:46 10° NNW 19:26:11 62° W 19:29:34 10° S
STARLINK-1239 4.0 19:23:19 10° WSW 19:27:27 69° NW 19:31:35 10° NE
Cosmos 1300 Rocket 4.5 19:23:58 10° N 19:28:00 32° ENE 19:31:59 10° SE
STARLINK-1115 4.5 19:24:38 10° WNW 19:28:34 42° SW 19:32:28 10° SSE
Cosmos 2056 Rocket 4.2 19:24:04 10° SSW 19:29:06 59° WNW 19:34:11 10° NNE
Aureole 2 Rocket 4.0 19:28:49 10° SE 19:30:40 15° E 19:32:28 10° ENE
STARLINK-1126 4.2 19:26:53 10° NW 19:30:58 51° NNE 19:35:01 10° ESE
STARLINK-1240 4.2 19:28:19 10° WSW 19:32:25 64° NW 19:36:33 10° NE
Meteor 1-4 Rocket 2.6 19:29:11 10° SSW 19:32:36 78° W 19:36:06 10° N
Cosmos 1437 Rocket 4.0 19:29:47 10° SE 19:32:43 22° E 19:35:41 10° NE
STARLINK-1082 4.1 19:31:48 10° NW 19:35:53 55° NNE 19:39:57 10° ESE
USA 186 3.9 19:34:17 10° SSW 19:36:19 21° W 19:38:28 10° NW
STARLINK-1203 4.4 19:32:56 10° WSW 19:37:05 59° NNW 19:41:15 10° NE
STARLINK-1216 4.3 19:33:19 10° WSW 19:37:24 59° NNW 19:41:30 10° NE
Lacrosse 5 2.0 19:32:52 10° NW 19:37:56 72° NE 19:42:55 10° SE
STARLINK-1100 4.0 19:36:45 10° NW 19:40:51 60° NNE 19:44:56 10° ESE
ISS -3.6 19:37:33 10° NW 19:40:55 69° NNE 19:44:06 11° ESE
STARLINK-1237 4.5 19:38:20 10° WSW 19:42:23 54° NNW 19:46:29 10° NE
COSMOS 2406 3.7 19:37:13 10° NNW 19:42:53 60° WSW 19:48:29 10° S
Cosmos 1975 3.3 19:39:31 10° NNW 19:43:30 61° W 19:47:26 10° S
CZ-2C R/B 2.9 19:38:49 10° NNE 19:44:28 85° WNW 19:50:05 10° SSW
STARLINK-1083 3.9 19:41:45 10° NW 19:45:53 65° NE 19:49:44 11° ESE
Meteor 2-4 Rocket 3.6 19:40:47 10° S 19:46:08 82° E 19:51:31 10° NNE
NOSS 2-2 (E) 4.0 19:44:55 10° S 19:47:59 28° ESE 19:51:15 10° ENE
EXPRESS MD2 2.8 19:46:34 10° SW 19:49:09 61° SE 19:53:40 10° ENE
STARLINK-1125 3.8 19:46:44 10° NW 19:50:52 70° NE 19:54:31 13° ESE
Cosmos 2297 4.1 19:47:29 10° S 19:52:44 41° ESE 19:58:02 10° NE
Cosmos 1943 Rocket 3.6 19:50:21 12° SE 19:53:24 18° E 19:56:58 10° ENE
Cosmos 1833 Rocket 2.8 19:48:46 10° NNW 19:54:23 76° WSW 19:59:58 10° SSE
STARLINK-1109 3.7 19:51:42 10° NW 19:55:51 76° NE 19:59:18 14° ESE
IGS 5A 4.4 19:55:29 14° SE 19:58:33 33° ENE 20:02:18 10° N
Cosmos 1452 Rocket 3.5 19:54:06 10° SSW 19:59:22 90° ESE 20:04:42 10° NNE
Cosmos 332 Rocket 3.8 19:54:49 10° S 19:59:42 71° ESE 20:04:35 10° NNE
BREEZE-M DEB 2.6 19:58:13 10° SSW 20:00:11 31° SE 20:03:13 10° ENE
STARLINK-1091 3.6 19:56:39 10° NW 20:00:48 82° NE 20:04:04 16° SE
Cosmos 2082 Rocket 2.2 19:55:19 10° NNW 20:01:04 76° ENE 20:06:02 14° SSE
Intercosmos 24 3.7 20:00:21 10° N 20:03:53 66° E 20:07:16 13° SSE
STARLINK-1072 3.6 20:01:39 10° NW 20:05:49 89° NE 20:08:52 18° SE
Cosmos 1461 2.8 20:02:04 10° SSW 20:06:10 79° ESE 20:10:29 10° NE
Okean 3 4.0 20:03:58 10° SSW 20:08:12 61° W 20:12:29 10° N
Cosmos 2369 Rocket 3.7 20:07:22 15° ESE 20:09:18 17° E 20:12:52 10° ENE
STARLINK-1096 3.6 20:06:38 10° NW 20:10:47 84° SW 20:13:39 19° SE
NOSS 2-2 (C) 3.4 20:09:10 10° S 20:12:31 40° ESE 20:16:02 10° NE
SAR-Lupe-2 3.9 20:09:05 10° NNE 20:12:34 45° E 20:15:09 16° S
ASTRO E2 4.3 20:12:36 10° SW 20:15:10 17° S 20:15:41 16° SSE
STARLINK-1079 3.6 20:11:37 10° NW 20:15:45 77° SW 20:18:26 21° SE
Cosmos 2221 Rocket 4.3 20:11:40 10° SSW 20:16:06 56° W 20:20:34 10° N
ATLAS 2AS CENTAUR R/B 4.3 20:13:12 15° SE 20:16:08 19° ESE 20:21:17 10° ENE
SPOT 5 4.1 20:14:18 16° ESE 20:17:41 32° ENE 20:22:23 10° N
SL-4 R/B 2.9 20:16:03 10° NW 20:18:38 26° WSW 20:20:30 14° SSW
Meteor 1-13 Rocket 4.4 20:14:03 10° SSW 20:19:39 80° W 20:25:26 10° N
STARLINK-1116 3.7 20:16:36 10° WNW 20:20:44 70° SW 20:23:13 23° SE
ERS-1 Rocket 3.7 20:19:40 19° SE 20:22:50 39° ENE 20:27:30 10° N
Cosmos 1066 Rocket 4.1 20:22:28 12° S 20:27:20 62° E 20:32:37 10° NNE
USA 245 2.4 20:27:56 29° SSE 20:29:19 80° ENE 20:31:57 10° N
STARLINK-1094 3.9 20:26:35 10° WNW 20:30:40 58° SW 20:32:47 26° SSE
Cosmos 2278 Rocket 4.3 20:27:41 10° WSW 20:32:37 30° NW 20:37:36 10° N
Resurs 01 Rocket 2.8 20:28:37 10° SSW 20:32:45 38° W 20:36:56 10° NNW
Nadezhda 4 Rocket 4.0 20:28:28 14° S 20:33:44 65° E 20:39:47 10° NNE
Okean 1 Rocket 3.2 20:31:07 10° N 20:35:33 61° E 20:37:53 26° SSE
STARLINK-1117 4.0 20:31:35 10° WNW 20:35:38 53° SW 20:37:34 27° SSE
GPS 2-04 Rocket1 3.5 20:32:41 10° WSW 20:35:40 26° S 20:35:57 26° S
Cosmos 1805 4.1 20:32:09 10° N 20:35:46 34° ENE 20:37:07 26° ESE
Okean 2 Rocket 4.3 20:32:03 10° NNW 20:36:09 38° W 20:40:13 10° SSW
Cosmos 1741 Rocket 4.1 20:31:01 10° NNW 20:36:14 74° WSW 20:39:48 20° S
MetOp-B 4.4 20:32:02 15° S 20:36:30 67° WSW 20:41:51 10° NNW
STARLINK-1078 4.1 20:36:35 10° WNW 20:40:35 48° SW 20:42:21 28° SSE
SL-8 R/B 4.1 20:37:59 10° WNW 20:42:45 60° NNE 20:46:16 18° E
STARLINK-1073 4.4 20:38:51 10° NW 20:42:52 46° NNE 20:45:22 21° E
STARLINK-1108 4.2 20:41:36 10° WNW 20:45:33 43° SW 20:47:08 29° S
Cosmos 1850 Rocket 4.5 20:40:32 10° NNW 20:45:47 58° WSW 20:49:24 20° S
SL-4 R/B 2.8 20:41:57 10° SSW 20:46:19 39° SE 20:50:49 10° ENE
Cosmos 1110 Rocket 3.9 20:41:08 10° SSW 20:46:19 88° WNW 20:51:31 10° NNE
Terra 2.6 20:44:21 25° ESE 20:46:31 39° ENE 20:50:56 10° N
ATLAS 3B CENTAUR R/B 3.8 20:35:18 10° WSW 20:47:30 33° S 20:50:57 24° SSE
Spot 2 Rocket 3.8 20:44:03 19° S 20:47:41 63° WSW 20:52:42 10° NNW
STARLINK-1121 4.3 20:43:49 10° NW 20:47:52 50° NNE 20:50:08 23° E
SPOT 1/Viking Rocket 3.5 20:45:17 23° SSE 20:48:31 87° WSW 20:53:42 10° NNW
Cosmos 1842 4.3 20:48:52 27° ESE 20:49:17 27° E 20:52:37 10° NNE
CARTOSAT-1 3.6 20:47:49 31° SE 20:49:44 64° ENE 20:54:01 10° N
STARLINK-1071 4.4 20:46:37 10° WNW 20:50:30 39° SW 20:51:55 29° S
Abrixas rocket 2.0 20:48:19 10° WNW 20:51:15 69° NNE 20:51:50 50° E
STARLINK-1106 4.1 20:48:48 10° NW 20:52:53 54° NNE 20:54:57 26° E
STARLINK-1110 4.5 20:50:26 10° WNW 20:54:16 37° SW 20:55:32 29° S
STARLINK-1112 4.0 20:53:44 10° NW 20:57:50 58° NNE 20:59:42 30° E
Aureole 2 4.3 20:57:09 10° NNW 21:00:10 57° WSW 21:00:36 50° SSW
STARLINK-1128 3.9 20:58:42 10° NW 21:02:49 63° NNE 21:04:28 34° ESE
Cosmos 1331 Rocket 4.2 20:58:00 10° SSW 21:03:07 70° WNW 21:08:19 10° NNE
Aureole 2 Rocket 4.5 21:01:33 10° WSW 21:04:07 23° WNW 21:06:37 10° N
STARLINK-1113 3.8 21:03:41 10° NW 21:07:49 68° NE 21:09:15 38° ESE
Cosmos 1733 3.3 21:05:09 10° N 21:08:54 56° E 21:09:32 49° ESE
COSMOS 2455 4.2 21:09:45 20° ESE 21:09:45 20° ESE 21:13:49 10° ENE
Cosmos 1378 3.4 21:09:41 33° SSW 21:11:11 65° W 21:14:54 10° N
STARLINK-1119 3.7 21:08:41 10° NW 21:12:50 74° NE 21:14:04 43° ESE
Cosmos 1302 Rocket 3.9 21:10:13 27° S 21:13:11 75° ESE 21:18:30 10° NNE
Cosmos 1271 Rocket 4.2 21:14:22 24° E 21:14:22 24° E 21:17:10 10° NE
Cosmos 1242 Rocket 3.5 21:15:26 34° E 21:15:26 34° E 21:18:30 10° NNE
ISS -1.5 21:15:17 10° W 21:17:02 15° SW 21:17:02 15° SW
STARLINK-1114 3.6 21:13:38 10° NW 21:17:48 80° NE 21:18:49 49° ESE
Cosmos 1544 Rocket 4.4 21:13:58 10° N 21:17:57 35° ENE 21:18:39 32° E
Cosmos 1092 Rocket 3.9 21:15:30 25° S 21:19:15 90° W 21:25:26 10° N
MTI 3.9 21:16:11 10° NNE 21:18:58 58° ENE 21:18:58 58° ENE
Lacrosse 5 3.6 21:16:50 10° WNW 21:20:25 20° WSW 21:22:07 17° SSW
STARLINK-1130 (DARKSAT) 3.5 21:18:37 10° NW 21:22:46 87° NE 21:23:37 56° ESE
Cosmos 1707 4.2 21:24:35 24° ENE 21:24:35 24° ENE 21:27:17 10° NE
CENTAUR R/B 3.6 21:17:35 10° NNW 21:25:29 55° NE 21:31:08 23° ESE
STARLINK-1084 3.5 21:23:36 10° NW 21:27:45 86° SW 21:28:24 63° SE
ATLAS 3B R/B 4.2 21:22:29 10° NNW 21:28:18 29° NE 21:33:57 11° E
SL-27 R/B 2.6 21:25:55 10° N 21:29:27 58° ENE 21:29:29 58° ENE
NOSS 3-2 (C) 4.3 21:23:14 10° NNW 21:30:45 63° NE 21:35:37 27° ESE
Cosmos 1766 3.7 21:27:59 10° NNW 21:31:54 55° W 21:32:47 44° SW
STARLINK-1098 3.4 21:28:35 10° NW 21:32:43 79° SW 21:33:11 68° SSE
Cosmos 1726 4.3 21:30:38 10° NNE 21:32:50 15° ENE 21:32:50 15° ENE
Cosmos 1627 Rocket 4.5 21:30:05 30° S 21:33:25 89° W 21:39:51 10° N
Cosmos 1943 Rocket 2.5 21:31:46 14° SW 21:36:32 65° WNW 21:42:06 10° NNE
Cosmos 1992 Rocket 4.3 21:36:08 44° SE 21:36:48 46° ESE 21:41:46 10° NNE
STARLINK-1123 3.5 21:33:33 10° WNW 21:37:41 73° SW 21:37:56 70° S
NOSS 3-4 (A) 3.5 21:36:31 41° SSE 21:38:03 51° ESE 21:44:03 10° NE
NOSS 3-4 (C) 3.5 21:36:40 41° SSE 21:38:09 51° ESE 21:44:09 10° NE
Cosmos 1428 Rocket 4.4 21:36:33 34° S 21:39:31 88° E 21:45:51 10° N
STARLINK-1097 3.6 21:38:34 10° WNW 21:42:41 66° SW 21:42:45 66° SSW
Cosmos 2082 Rocket 4.4 21:41:16 10° WNW 21:44:24 15° W 21:47:31 10° SW
SeaSat 1 2.9 21:39:54 10° NE 21:44:35 42° ESE 21:44:35 42° ESE
EO 1 Del DPAF 4.1 21:41:34 10° NNE 21:44:29 37° ENE 21:44:29 37° ENE
Cosmos 1975 Rocket 3.7 21:44:37 35° SW 21:46:10 53° W 21:50:30 10° N
STARLINK-1099 3.7 21:43:33 10° WNW 21:47:31 60° SW 21:47:31 60° SW
Cosmos 292 Rocket 3.7 21:48:20 46° SSW 21:49:48 82° WNW 21:54:41 10° NNE
BREEZE-M DEB (TANK) 4.3 21:36:08 10° WSW 21:51:03 58° NNW 21:54:59 10° NE
STARLINK-1104 3.9 21:48:32 10° WNW 21:52:18 53° WSW 21:52:18 53° WSW
Cosmos 2369 Rocket 2.4 21:49:04 23° SW 21:52:42 67° WNW 21:58:21 10° NNE
SPOT 5 4.3 21:53:31 25° SW 21:55:38 34° W 22:00:29 10° NNW
S3M 4.2 21:50:18 10° N 21:56:22 56° E 21:58:11 42° SE
STARLINK-1144 4.1 21:53:33 10° WNW 21:57:05 47° WSW 21:57:05 47° WSW
ATLAS CENTAUR R/B 2.0 21:59:35 44° ENE 21:59:35 44° ENE 22:02:48 10° NE
Aureole 3 Rocket 4.4 21:53:38 10° N 22:00:10 90° NE 22:03:54 38° S
STARLINK-1103 4.4 21:58:33 10° WNW 22:01:51 41° WSW 22:01:51 41° WSW
Cosmos 1340 Rocket 4.0 21:58:56 10° N 22:02:31 33° ENE 22:02:31 33° ENE
Cosmos 1025 Rocket 2.8 22:02:58 77° ESE 22:03:00 77° E 22:07:18 10° N
Cosmos 2026 Rocket 4.5 22:00:24 27° SW 22:03:47 56° WNW 22:10:02 10° N
ATLAS 2AS CENTAUR R/B 3.0 22:00:30 22° SSW 22:06:06 85° ESE 22:14:07 10° NE
Thor Agena Rocket 3.5 22:00:48 10° NNE 22:06:06 81° ESE 22:07:11 57° S
Cosmos 1656 Rocket 3.5 22:04:50 51° S 22:06:18 81° ESE 22:11:54 10° NNE
Cosmos 1553 Rocket 3.9 22:03:36 10° N 22:09:54 85° W 22:11:43 49° S
BREEZE-M DEB (TANK) 3.8 21:58:55 10° WNW 22:10:34 76° NNE 22:11:56 44° E
Cosmos 1953 2.9 22:07:08 10° N 22:10:41 48° ENE 22:10:41 48° ENE
STARLINK-1228 4.3 22:07:51 10° NW 22:11:08 39° NNE 22:11:08 39° NNE
NOSS 3-2 (A) 4.3 22:04:31 10° NW 22:12:05 59° WSW 22:15:11 39° S
Cosmos 1470 3.0 22:08:16 10° NNW 22:11:51 61° WNW 22:11:51 61° WNW
Cosmos 1655 Rocket 3.9 22:15:01 51° S 22:16:45 82° E 22:23:03 10° N
Cosmos 968 Rocket 3.4 22:11:43 10° NNW 22:16:52 73° WSW 22:17:31 63° SSW
Cosmos 1455 Rocket 4.1 22:15:00 10° NNW 22:18:54 34° W 22:19:25 33° WSW
ATLAS 5 CENTAUR R/B 2.0 22:15:13 10° SW 22:21:46 65° NNW 22:24:01 10° NNE
USA 238 DEB 4.3 22:16:52 10° NW 22:23:47 48° WSW 22:25:51 39° SSW
USA 238 4.3 22:16:58 10° NW 22:23:53 48° WSW 22:25:58 39° SSW
Terra 3.5 22:23:15 21° WSW 22:24:22 22° W 22:28:06 10° NW
Cosmos 1758 3.9 22:21:38 10° NNW 22:25:25 51° W 22:25:25 51° W
SL-4 R/B 3.2 22:21:19 10° WSW 22:26:00 52° NNW 22:30:45 10° NE
Cosmos 2228 4.2 22:24:57 10° NNE 22:28:36 31° ENE 22:28:36 31° ENE
In-Cosmos 22 3.9 22:30:05 68° SSE 22:30:40 77° E 22:35:57 10° NNE
Cosmos 2266 Rocket 3.8 22:33:43 57° S 22:35:03 83° E 22:41:07 10° N
Cosmos 1503 Rocket 4.0 22:31:44 10° NNW 22:37:02 68° WSW 22:37:35 63° SW
Cosmos 1536 Rocket 4.4 22:45:44 40° W 22:46:02 40° WNW 22:50:10 10° N
Cosmos 1674 3.6 22:48:20 45° NNE 22:48:20 45° NNE 22:51:06 10° NNE
Meteor 2-15 Rocket 4.5 22:43:31 10° N 22:49:40 71° E 22:50:55 56° SE
Spot 4 4.4 22:53:29 46° WSW 22:53:38 46° W 22:58:19 10° NNW
COSMOS 2455 3.0 22:52:50 41° SW 22:54:56 68° WNW 23:00:58 10° NNE
Cosmos 1354 Rocket 4.3 22:51:11 10° NNW 22:56:18 51° WSW 22:56:35 51° WSW
USA 215 3.6 22:52:57 22° ESE 22:57:23 63° NE 23:03:50 10° NW
Cosmos 883 Rocket 4.4 22:51:38 10° N 22:57:47 81° W 22:58:57 60° S
Helios 1A 3.4 23:01:35 57° NE 23:01:35 57° NE 23:05:25 10° N
Cosmos 2297 Rocket 3.9 22:58:59 10° N 23:03:39 26° NE 23:07:00 15° E
ALOS 2 2.9 23:07:47 60° WNW 23:07:47 60° WNW 23:11:46 10° NNW
Cosmos 1726 3.7 23:04:53 10° NNW 23:07:20 28° WNW 23:07:20 28° WNW
Timation 2 Rocket 4.0 23:05:03 10° NNW 23:11:19 70° ENE 23:12:55 50° SE
COSMOS 2487 4.4 23:08:49 10° NW 23:10:32 24° NW 23:10:32 24° NW
Cosmos 2058 Rocket 3.7 23:07:46 10° N 23:11:58 48° ENE 23:11:58 48° ENE
Meteor 2-5 Rocket 3.5 23:14:12 71° SSE 23:14:48 82° E 23:20:26 10° NNE
CENTAUR R/B 3.7 23:08:33 10° NW 23:16:16 44° WSW 23:18:17 38° SW
SL-14 R/B 4.3 23:19:11 41° NE 23:19:11 41° NE 23:21:59 10° NNE
Cosmos 1867 4.2 23:14:01 10° NW 23:18:45 40° WSW 23:18:45 40° WSW
ATLAS 3B R/B 2.6 23:12:46 10° NW 23:19:35 74° WSW 23:21:10 55° S
STARLINK-1232 4.5 23:17:46 10° NW 23:21:48 47° NNE 23:22:15 45° NE
SeaSat 1 4.1 23:17:42 10° N 23:21:55 29° NW 23:24:20 19° W
Meteor 2-21 4.4 23:20:59 61° SSE 23:22:06 79° E 23:28:18 10° N
Cosmos 1606 Rocket 3.9 23:17:49 10° NNW 23:21:36 58° WNW 23:21:36 58° WNW
Cosmos 2098 Rocket 4.5 23:20:08 46° SW 23:22:21 68° W 23:29:50 10° N
STARLINK-1208 4.3 23:22:43 10° NW 23:26:46 51° NNE 23:27:00 50° NE
Cosmos 1656 4.5 23:27:53 37° ESE 23:28:04 37° ESE 23:33:12 10° NE
STARLINK-1373 4.5 23:30:05 43° NNE 23:30:05 43° NNE 23:32:50 10° NE
ATLAS CENTAUR R/B 3.8 23:27:20 10° N 23:29:22 20° NE 23:32:38 10° E
RESURS DK-1 3.0 23:29:48 49° NW 23:29:48 49° NW 23:33:37 10° NNE
STARLINK-1365 4.4 23:31:11 45° NNE 23:31:11 45° NNE 23:34:06 10° NE
STARLINK-1271 4.2 23:27:43 10° NW 23:31:48 55° NNE 23:31:49 55° NNE
STARLINK-1390 4.4 23:33:34 45° NNE 23:33:34 45° NNE 23:36:28 10° NE
Cosmos 1697 Rocket 4.2 23:32:47 22° ESE 23:33:10 22° E 23:37:26 10° NE
Cosmos 2084 4.0 23:33:36 54° WNW 23:33:48 55° NW 23:38:12 10° NNE
Cosmos 1626 3.1 23:36:00 47° N 23:36:00 47° N 23:38:45 10° N
BREEZE-M R/B 3.5 23:31:45 26° WSW 23:35:52 85° NNW 23:39:48 10° ENE
Cosmos 2315 Rocket 4.3 23:29:55 10° NNW 23:35:52 51° W 23:36:59 45° WSW
STARLINK-1154 4.1 23:32:40 10° NW 23:36:35 58° NNE 23:36:35 58° NNE
Okean 1-7 Rocket 3.7 23:37:39 74° NW 23:37:39 74° NW 23:41:56 10° N
ATLAS CENTAUR R/B 3.7 23:35:43 15° W 23:37:50 20° NW 23:40:56 10° N
Cosmos 2227 Rocket 3.2 23:35:26 10° NNW 23:40:48 41° ENE 23:43:30 25° ESE
STARLINK-1197 4.1 23:37:37 10° NW 23:41:21 60° N 23:41:21 60° N
CZ-4 R/B 3.7 23:39:05 10° NNE 23:43:51 76° ESE 23:43:51 76° ESE
STARLINK-1198 4.1 23:42:35 10° NW 23:46:07 58° NNW 23:46:07 58° NNW
Cosmos 1602 Rocket 4.4 23:47:23 40° E 23:47:23 40° E 23:51:13 10° NNE
Meteor 2-21 Rocket 4.4 23:50:06 59° SSW 23:51:20 80° W 23:57:34 10° N
STARLINK-1199 4.1 23:47:35 10° NW 23:50:55 55° NNW 23:50:55 55° NNW
